Simultaneous Nadir Overpasses (SNOs) Predictions

Prediction of SNOs between GOES-17 and NOAA-19 Satellite Orbit:

Table of predicted SNOs for the next 14.0 days since TLE Epoch: 2/22/2020
Index Date Time (GOES-17) GOES-17 Lat,Lon NOAA-19 Lat,Lon Distance(km) Time Diff (sec)
1 02/23/2020 02:54:31 -0.01,-137.21 -0.63,-139.88 304.69 80
2 02/24/2020 02:45:32 -0.01,-137.21 0.06,-137.03 20.62 80
3 02/25/2020 02:33:51 -0.01,-137.20 0.69,-134.18 345.32 80
4 02/27/2020 14:54:47 0.01,-137.19 0.46,-139.13 220.60 80
5 02/28/2020 14:43:08 0.01,-137.18 -0.21,-136.28 103.73 80
6 02/29/2020 14:31:28 0.01,-137.17 -0.89,-133.43 427.83 80
7 03/02/2020 03:01:37 -0.01,-137.15 -0.95,-141.28 471.16 80
8 03/03/2020 02:49:56 -0.01,-137.13 -0.31,-138.42 147.47 80
9 03/04/2020 02:40:57 -0.01,-137.12 0.38,-135.58 176.04 80
10 03/05/2020 02:29:16 -0.01,-137.10 1.01,-132.72 499.30 80
11 03/06/2020 14:59:14 0.00,-137.07 0.82,-140.52 394.73 80




NCC Satellite Simultaneous Nadir Overpasses (SNOs) Prediction Service
